SAS4561 ENBO-ENVA

Flight info

Callsign SAS4561
Flight time 0h 46m
Altitude 34000
Route DISMU DCT NUPGO
Aircraft A319/M-SDE3FGHIRWY/LB1

Departure

Time 2026-04-30 19:45
Airport Bodø Airport (ENBO)

Arrival

Time 2026-04-30 20:31
Airport Trondheim Airport, Værnes (ENVA)
Time Latitude Longitude Altitude Speed Heading
2026-04-30 19:23 67.27158 14.36866 47 ft 0 kts 328°
2026-04-30 19:26 67.27188 14.36922 46 ft 0 kts 292°
2026-04-30 19:28 67.27188 14.36923 46 ft 0 kts 292°
2026-04-30 19:37 67.27187 14.36930 47 ft 3 kts 292°
2026-04-30 19:38 67.27176 14.36993 45 ft 4 kts 293°
2026-04-30 19:38 67.27166 14.37057 44 ft 4 kts 293°
2026-04-30 19:38 67.27155 14.37121 48 ft 4 kts 286°
2026-04-30 19:38 67.27152 14.37178 50 ft 4 kts 213°
2026-04-30 19:39 67.27159 14.37184 44 ft 1 kts 168°
2026-04-30 19:39 67.27159 14.37183 44 ft 1 kts 168°
2026-04-30 19:41 67.27155 14.37186 50 ft 1 kts 167°
2026-04-30 19:42 67.27140 14.37195 48 ft 3 kts 166°
2026-04-30 19:42 67.27120 14.37213 52 ft 2 kts 152°
2026-04-30 19:42 67.27111 14.37242 52 ft 2 kts 119°
2026-04-30 19:42 67.27114 14.37334 55 ft 8 kts 77°
2026-04-30 19:43 67.27128 14.37497 57 ft 10 kts 78°
2026-04-30 19:43 67.27144 14.37690 54 ft 12 kts 78°
2026-04-30 19:43 67.27160 14.37925 50 ft 15 kts 85°
2026-04-30 19:44 67.27131 14.38362 54 ft 9 kts 150°
2026-04-30 19:44 67.27080 14.38379 54 ft 6 kts 216°
2026-04-30 19:44 67.27065 14.38233 54 ft 15 kts 258°
2026-04-30 19:44 67.26983 14.37261 44 ft 99 kts 258°
2026-04-30 19:45 67.26770 14.34974 247 ft 145 kts 251°
2026-04-30 19:45 67.26557 14.32368 1061 ft 149 kts 255°
2026-04-30 19:45 67.26397 14.29754 2028 ft 147 kts 257°
2026-04-30 19:45 67.26104 14.27101 2439 ft 163 kts 237°
2026-04-30 19:46 67.25266 14.24874 2721 ft 190 kts 221°
2026-04-30 19:46 67.24147 14.22613 3233 ft 216 kts 219°
2026-04-30 19:46 67.22918 14.20216 4093 ft 226 kts 219°
2026-04-30 19:46 67.21655 14.17726 5127 ft 231 kts 220°
2026-04-30 19:47 67.20370 14.15146 6087 ft 237 kts 222°
2026-04-30 19:47 67.19503 14.13373 6693 ft 242 kts 223°
2026-04-30 19:47 67.17720 14.09684 7925 ft 248 kts 224°
2026-04-30 19:47 67.16373 14.06873 8869 ft 251 kts 225°
2026-04-30 19:48 67.15030 14.04057 9826 ft 254 kts 225°
2026-04-30 19:48 67.13646 14.01139 10533 ft 265 kts 225°
2026-04-30 19:48 67.12160 13.98005 10878 ft 287 kts 223°
2026-04-30 19:48 67.10339 13.95461 11386 ft 312 kts 204°
2026-04-30 19:49 67.08125 13.94682 12103 ft 328 kts 190°
2026-04-30 19:49 67.03499 13.94277 13671 ft 337 kts 189°
2026-04-30 19:49 67.01142 13.94146 14371 ft 341 kts 189°
2026-04-30 19:50 66.98758 13.94020 15049 ft 344 kts 189°
2026-04-30 19:50 66.96385 13.93892 15659 ft 348 kts 189°
2026-04-30 19:50 66.93950 13.93755 16322 ft 352 kts 190°
2026-04-30 19:50 66.91495 13.93612 16986 ft 354 kts 190°
2026-04-30 19:51 66.89012 13.93458 17663 ft 359 kts 190°
2026-04-30 19:51 66.86506 13.93299 18331 ft 363 kts 190°
2026-04-30 19:51 66.83970 13.93140 18906 ft 366 kts 190°
2026-04-30 19:51 66.81408 13.92978 19471 ft 370 kts 190°
2026-04-30 19:52 66.78827 13.92817 20046 ft 373 kts 190°
2026-04-30 19:52 66.76223 13.92653 20628 ft 376 kts 190°
2026-04-30 19:52 66.73626 13.92490 21183 ft 380 kts 190°
2026-04-30 19:52 66.70965 13.92325 21758 ft 384 kts 190°
2026-04-30 19:53 66.68286 13.92155 22311 ft 387 kts 190°
2026-04-30 19:53 66.65587 13.91983 22865 ft 390 kts 190°
2026-04-30 19:53 66.62862 13.91803 23394 ft 393 kts 190°
2026-04-30 19:53 66.60114 13.91629 23895 ft 396 kts 189°
2026-04-30 19:54 66.57347 13.91464 24328 ft 400 kts 189°
2026-04-30 19:54 66.54569 13.91099 24718 ft 397 kts 195°
2026-04-30 19:54 66.51937 13.89683 25161 ft 389 kts 205°
2026-04-30 19:54 66.49421 13.87290 25592 ft 387 kts 210°
2026-04-30 19:55 66.46922 13.84731 26034 ft 390 kts 210°
2026-04-30 19:55 66.44403 13.82155 26462 ft 392 kts 210°
2026-04-30 19:55 66.41866 13.79563 26849 ft 395 kts 210°
2026-04-30 19:55 66.39311 13.76973 27258 ft 398 kts 210°
2026-04-30 19:56 66.36734 13.74378 27700 ft 401 kts 210°
2026-04-30 19:56 66.34141 13.71773 28120 ft 403 kts 210°
2026-04-30 19:56 66.31528 13.69154 28540 ft 406 kts 210°
2026-04-30 19:56 66.28902 13.66521 28942 ft 409 kts 210°
2026-04-30 19:57 66.26289 13.63896 29347 ft 412 kts 210°
2026-04-30 19:57 66.23625 13.61226 29732 ft 414 kts 210°
2026-04-30 19:57 66.20938 13.58541 30103 ft 417 kts 210°
2026-04-30 19:57 66.18239 13.55853 30447 ft 420 kts 210°
2026-04-30 19:58 66.15523 13.53157 30768 ft 422 kts 210°
2026-04-30 19:58 66.12790 13.50454 31072 ft 423 kts 209°
2026-04-30 19:58 66.10047 13.47749 31380 ft 425 kts 209°
2026-04-30 19:58 66.07299 13.45044 31696 ft 427 kts 209°
2026-04-30 19:59 66.04537 13.42333 32087 ft 427 kts 209°
2026-04-30 19:59 66.01820 13.39670 32522 ft 425 kts 209°
2026-04-30 19:59 65.96350 13.34328 33389 ft 422 kts 209°
2026-04-30 20:00 65.93630 13.31680 33850 ft 420 kts 209°
2026-04-30 20:00 65.90909 13.29038 34166 ft 420 kts 209°
2026-04-30 20:00 65.88217 13.26431 34223 ft 412 kts 209°
2026-04-30 20:01 65.80284 13.18764 34216 ft 407 kts 210°
2026-04-30 20:01 65.75063 13.13741 34212 ft 406 kts 209°
2026-04-30 20:02 65.67174 13.06186 34219 ft 407 kts 209°
2026-04-30 20:03 65.59257 12.98673 34220 ft 407 kts 209°
2026-04-30 20:03 65.54014 12.93731 34226 ft 407 kts 209°
2026-04-30 20:04 65.48736 12.88777 34232 ft 407 kts 209°
2026-04-30 20:05 65.40802 12.81361 34224 ft 408 kts 209°
2026-04-30 20:05 65.32858 12.73968 34222 ft 409 kts 209°
2026-04-30 20:06 65.27586 12.69096 34225 ft 410 kts 209°
2026-04-30 20:06 65.22259 12.64199 34231 ft 410 kts 208°
2026-04-30 20:07 65.16927 12.59318 34223 ft 410 kts 208°
2026-04-30 20:08 65.08926 12.52027 34237 ft 411 kts 208°
2026-04-30 20:08 65.03609 12.47206 34236 ft 412 kts 208°
2026-04-30 20:09 64.98250 12.42369 33925 ft 413 kts 208°
2026-04-30 20:09 64.95579 12.39973 33530 ft 409 kts 208°
2026-04-30 20:09 64.90287 12.35249 32554 ft 403 kts 208°
2026-04-30 20:10 64.85086 12.30611 31611 ft 396 kts 207°
2026-04-30 20:10 64.82547 12.28350 31139 ft 394 kts 207°
2026-04-30 20:10 64.79994 12.26082 30674 ft 391 kts 207°
2026-04-30 20:11 64.74934 12.21602 29695 ft 385 kts 207°
2026-04-30 20:11 64.72441 12.19408 29242 ft 381 kts 207°
2026-04-30 20:11 64.69972 12.17233 28791 ft 378 kts 207°
2026-04-30 20:12 64.65103 12.12939 27913 ft 375 kts 208°
2026-04-30 20:12 64.62682 12.10552 27479 ft 381 kts 208°
2026-04-30 20:12 64.60211 12.08272 27092 ft 382 kts 207°
2026-04-30 20:13 64.57756 12.06136 26713 ft 381 kts 206°
2026-04-30 20:13 64.55273 12.04039 26329 ft 379 kts 206°
2026-04-30 20:13 64.52796 12.01961 25953 ft 377 kts 206°
2026-04-30 20:13 64.50345 11.99898 25585 ft 375 kts 206°
2026-04-30 20:14 64.47897 11.97823 25209 ft 372 kts 206°
2026-04-30 20:14 64.45474 11.95753 24854 ft 370 kts 207°
2026-04-30 20:14 64.43065 11.93687 24498 ft 368 kts 207°
2026-04-30 20:14 64.40676 11.91631 24146 ft 365 kts 207°
2026-04-30 20:15 64.38302 11.89590 23789 ft 363 kts 207°
2026-04-30 20:15 64.35974 11.87597 23382 ft 361 kts 207°
2026-04-30 20:15 64.33620 11.85593 22968 ft 359 kts 207°
2026-04-30 20:15 64.31283 11.83608 22564 ft 356 kts 207°
2026-04-30 20:16 64.28968 11.81643 22159 ft 354 kts 207°
2026-04-30 20:16 64.26667 11.79691 21768 ft 351 kts 207°
2026-04-30 20:16 64.24381 11.77753 21383 ft 349 kts 207°
2026-04-30 20:16 64.22113 11.75834 21003 ft 346 kts 207°
2026-04-30 20:17 64.19858 11.73933 20600 ft 344 kts 207°
2026-04-30 20:17 64.17616 11.72044 20179 ft 342 kts 207°
2026-04-30 20:17 64.15393 11.70184 19765 ft 339 kts 207°
2026-04-30 20:17 64.13185 11.68342 19353 ft 336 kts 207°
2026-04-30 20:18 64.11029 11.66498 18953 ft 334 kts 207°
2026-04-30 20:18 64.08847 11.64565 18550 ft 331 kts 208°
2026-04-30 20:18 64.06734 11.62690 18086 ft 330 kts 206°
2026-04-30 20:18 64.04440 11.61698 17437 ft 342 kts 191°
2026-04-30 20:19 64.02056 11.61319 16786 ft 345 kts 191°
2026-04-30 20:19 64.00432 11.61091 16348 ft 346 kts 191°
2026-04-30 20:19 63.97252 11.60675 15521 ft 347 kts 190°
2026-04-30 20:19 63.94841 11.60362 14906 ft 347 kts 190°
2026-04-30 20:20 63.92430 11.60045 14301 ft 347 kts 190°
2026-04-30 20:20 63.90022 11.59724 13657 ft 346 kts 190°
2026-04-30 20:20 63.87627 11.59400 12990 ft 345 kts 189°
2026-04-30 20:20 63.85239 11.59072 12439 ft 341 kts 189°
2026-04-30 20:21 63.82921 11.58762 12279 ft 326 kts 189°
2026-04-30 20:21 63.80716 11.58480 12288 ft 308 kts 190°
2026-04-30 20:21 63.78661 11.58221 12292 ft 292 kts 190°
2026-04-30 20:21 63.76680 11.57959 12303 ft 278 kts 191°
2026-04-30 20:22 63.74801 11.57705 12295 ft 264 kts 191°
2026-04-30 20:22 63.72988 11.57456 12145 ft 261 kts 191°
2026-04-30 20:22 63.71229 11.57198 11694 ft 267 kts 191°
2026-04-30 20:22 63.69345 11.56914 11185 ft 273 kts 191°
2026-04-30 20:23 63.67445 11.56634 10703 ft 275 kts 191°
2026-04-30 20:23 63.65526 11.56364 10226 ft 277 kts 190°
2026-04-30 20:23 63.63597 11.56102 9697 ft 278 kts 190°
2026-04-30 20:23 63.61691 11.55850 9215 ft 277 kts 190°
2026-04-30 20:24 63.59775 11.55601 8749 ft 275 kts 189°
2026-04-30 20:24 63.57872 11.55349 8290 ft 273 kts 189°
2026-04-30 20:24 63.55987 11.55097 7833 ft 270 kts 189°
2026-04-30 20:24 63.54112 11.54848 7393 ft 269 kts 189°
2026-04-30 20:25 63.50593 11.52889 6499 ft 258 kts 206°
2026-04-30 20:25 63.48922 11.51453 5999 ft 257 kts 206°
2026-04-30 20:26 63.46350 11.46439 5266 ft 242 kts 240°
2026-04-30 20:26 63.45569 11.39386 4625 ft 233 kts 270°
2026-04-30 20:26 63.45591 11.35805 4279 ft 227 kts 270°
2026-04-30 20:27 63.45629 11.28932 3603 ft 215 kts 270°
2026-04-30 20:27 63.45659 11.22444 2964 ft 201 kts 271°
2026-04-30 20:28 63.45683 11.16570 2372 ft 177 kts 271°
2026-04-30 20:28 63.45701 11.11661 1864 ft 141 kts 271°
2026-04-30 20:29 63.45717 11.07498 1390 ft 130 kts 270°
2026-04-30 20:30 63.45739 11.01527 842 ft 127 kts 269°
2026-04-30 20:30 63.45755 10.95621 239 ft 128 kts 269°
2026-04-30 20:31 63.45759 10.90955 33 ft 38 kts 269°
2026-04-30 20:32 63.45636 10.90374 27 ft 6 kts 179°
2026-04-30 20:32 63.45598 10.90498 31 ft 5 kts 88°
2026-04-30 20:33 63.45599 10.90587 33 ft 6 kts 89°
2026-04-30 20:33 63.45597 10.90807 36 ft 8 kts 91°
2026-04-30 20:33 63.45597 10.90933 38 ft 9 kts 90°
2026-04-30 20:34 63.45596 10.91280 40 ft 14 kts 90°
2026-04-30 20:34 63.45596 10.91754 39 ft 9 kts 90°
2026-04-30 20:35 63.45595 10.91780 39 ft 2 kts 91°
2026-04-30 20:35 63.45592 10.91802 40 ft 1 kts 114°
2026-04-30 20:35 63.45553 10.91823 41 ft 6 kts 182°
2026-04-30 20:36 63.45512 10.91823 43 ft 2 kts 179°
2026-04-30 20:36 63.45497 10.91823 44 ft 2 kts 181°
2026-04-30 20:36 63.45496 10.91823 44 ft 0 kts 181°